Overview Statistics Trail Chart Weather Telemetry Raw packets
 

This is the latest recevied weather packets stored in our database for station/object KN6WGU. If no packets are shown the sender has not sent any weather packets the latest 10 day(s).

<< 51 52 53 54 55 56 57 >>
Time Temp. Humidity Pressure Rain* Wind** Luminosity Snow
1788273985 28.89° C 75% 1009.5 hPa 0 mm - 132 W/m² -
1788273680 28.33° C 75% 1009.4 hPa 0 mm - 145 W/m² -
1788273375 28.33° C 76% 1009.3 hPa 0 mm - 137 W/m² -
1788273072 27.78° C 76% 1009.3 hPa 0 mm - 84 W/m² -
1788272768 27.78° C 74% 1009.3 hPa 0 mm - 108 W/m² -
1788272467 27.78° C 75% 1009.1 hPa 0 mm - 128 W/m² -
1788272162 28.33° C 75% 1009.3 hPa 0 mm - 128 W/m² -
1788271856 28.33° C 74% 1009.4 hPa 0 mm - 125 W/m² -
1788271555 28.33° C 74% 1009.3 hPa 0 mm - 117 W/m² -
1788271249 28.33° C 73% 1009 hPa 0 mm - 142 W/m² -
1788270948 28.33° C 74% 1009 hPa 0 mm - 128 W/m² -
1788270644 27.78° C 75% 1008.9 hPa 0 mm - 93 W/m² -
1788270341 27.78° C 75% 1008.8 hPa 0 mm - 80 W/m² -
1788270035 27.78° C 75% 1008.8 hPa 0 mm - 58 W/m² -
1788269734 27.22° C 76% 1008.7 hPa 0 mm - 52 W/m² -
1788269433 27.22° C 77% 1008.7 hPa 0 mm - 47 W/m² -
1788269132 27.22° C 77% 1008.7 hPa 0 mm - 47 W/m² -
1788268826 27.22° C 77% 1008.7 hPa 0 mm - 46 W/m² -
1788268521 27.22° C 77% 1008.9 hPa 0 mm - 46 W/m² -
1788268217 26.67° C 78% 1008.8 hPa 0 mm - 45 W/m² -
1788267911 26.67° C 79% 1009.1 hPa 0 mm - 46 W/m² -
1788267609 26.67° C 79% 1008.8 hPa 0 mm - 46 W/m² -
1788267309 26.67° C 79% 1009.2 hPa 0 mm - 47 W/m² -
1788267008 26.67° C 79% 1009.1 hPa 0 mm - 44 W/m² -
1788266703 26.67° C 79% 1009.2 hPa 0 mm - 36 W/m² -

* Rain latest hour (hover to see other rain measurements)
** Current wind speed in m/s (hover to see current wind gust speed)